Time,TemperatureF,DewpointF,PressureIn,WindDirection,WindDirectionDegrees,WindSpeedMPH,WindSpeedGustMPH,Humidity,HourlyPrecipIn,Conditions,Clouds,dailyrainin,SoftwareType,DateUTC
2013-04-05 00:02:00,48.7,40.7,30.06,NW,318,3.1,3.1,74,0.00,,CLR,0.00,VWS V14.01,2013-04-05 05:02:00,
2013-04-05 00:07:00,48.9,40.8,30.06,North,357,4.0,7.6,74,0.00,,CLR,0.00,VWS V14.01,2013-04-05 05:07:00,
2013-04-05 00:12:00,48.9,40.8,30.06,North,353,7.6,8.1,74,0.00,,CLR,0.00,VWS V14.01,2013-04-05 05:12:00,
2013-04-05 00:17:00,48.9,40.8,30.06,NNW,337,6.3,6.3,74,0.00,,CLR,0.00,VWS V14.01,2013-04-05 05:17:00,
2013-04-05 00:22:00,48.9,40.8,30.06,North,357,4.9,7.6,74,0.00,,CLR,0.00,VWS V14.01,2013-04-05 05:22:00,
2013-04-05 00:27:00,48.9,40.8,30.06,NNW,341,3.1,8.1,74,0.00,,CLR,0.00,VWS V14.01,2013-04-05 05:27:00,
2013-04-05 00:32:00,48.9,40.8,30.06,North,0,7.6,10.1,74,0.00,,CLR,0.00,VWS V14.01,2013-04-05 05:32:00,
2013-04-05 00:37:00,48.7,40.7,30.06,NNW,345,5.4,11.0,74,0.00,,CLR,0.00,VWS V14.01,2013-04-05 05:37:00,
2013-04-05 00:42:00,48.6,40.5,30.06,NNW,341,4.0,11.0,74,0.00,,CLR,0.00,VWS V14.01,2013-04-05 05:42:00,
2013-04-05 00:47:00,48.6,40.5,30.09,NW,321,5.8,8.7,74,0.00,,CLR,0.00,VWS V14.01,2013-04-05 05:47:00,
2013-04-05 00:52:00,48.4,40.3,30.09,NNW,329,6.3,7.6,74,0.00,,CLR,0.00,VWS V14.01,2013-04-05 05:52:00,
2013-04-05 00:57:00,48.2,40.1,30.09,North,357,8.1,13.2,74,0.00,,CLR,0.00,VWS V14.01,2013-04-05 05:57:00,
2013-04-05 01:03:00,48.0,41.2,30.09,North,357,5.4,12.8,77,0.00,,CLR,0.00,VWS V14.01,2013-04-05 06:03:00,
2013-04-05 01:08:00,48.0,41.2,30.09,North,357,7.2,8.7,77,0.00,,CLR,0.00,VWS V14.01,2013-04-05 06:08:00,
2013-04-05 01:13:00,47.8,41.0,30.09,NW,318,5.8,10.1,77,0.00,,CLR,0.00,VWS V14.01,2013-04-05 06:13:00,
2013-04-05 01:18:00,47.7,40.8,30.09,North,353,5.8,8.7,77,0.00,,CLR,0.00,VWS V14.01,2013-04-05 06:18:00,
2013-04-05 01:23:00,47.5,40.6,30.09,NNW,334,8.1,10.5,77,0.00,,CLR,0.00,VWS V14.01,2013-04-05 06:23:00,
2013-04-05 01:28:00,47.5,40.6,30.09,North,350,10.1,14.1,77,0.00,,CLR,0.00,VWS V14.01,2013-04-05 06:28:00,
2013-04-05 01:33:00,47.5,40.6,30.09,North,357,7.6,10.1,77,0.00,,CLR,0.00,VWS V14.01,2013-04-05 06:33:00,
2013-04-05 01:38:00,47.3,40.5,30.09,North,0,5.4,12.3,77,0.00,,CLR,0.00,VWS V14.01,2013-04-05 06:38:00,
2013-04-05 01:43:00,47.3,40.5,30.09,North,353,3.6,10.5,77,0.00,,CLR,0.00,VWS V14.01,2013-04-05 06:43:00,
2013-04-05 01:48:00,46.9,40.1,30.06,NNW,336,10.5,11.0,77,0.00,,CLR,0.00,VWS V14.01,2013-04-05 06:48:00,
2013-04-05 01:53:00,46.8,39.9,30.06,NNW,342,4.0,11.0,77,0.00,,CLR,0.00,VWS V14.01,2013-04-05 06:53:00,
2013-04-05 01:58:00,46.8,39.9,30.06,North,0,8.1,13.2,77,0.00,,CLR,0.00,VWS V14.01,2013-04-05 06:58:00,
2013-04-05 02:04:00,46.6,39.8,30.09,NW,324,4.0,8.1,77,0.00,,CLR,0.00,VWS V14.01,2013-04-05 07:04:00,
2013-04-05 02:09:00,46.4,39.6,30.09,NW,316,4.9,8.3,77,0.00,,CLR,0.00,VWS V14.01,2013-04-05 07:09:00,
2013-04-05 02:14:00,46.2,39.4,30.09,North,357,4.0,10.5,77,0.00,,CLR,0.00,VWS V14.01,2013-04-05 07:14:00,
2013-04-05 02:19:00,46.0,39.2,30.09,North,353,8.7,8.7,77,0.00,,CLR,0.00,VWS V14.01,2013-04-05 07:19:00,
2013-04-05 02:24:00,45.9,39.1,30.09,ENE,58,4.9,8.1,77,0.00,,CLR,0.00,VWS V14.01,2013-04-05 07:24:00,
2013-04-05 02:29:00,45.7,38.9,30.09,North,350,5.4,8.1,77,0.00,,CLR,0.00,VWS V14.01,2013-04-05 07:29:00,
2013-04-05 02:34:00,45.5,38.7,30.09,North,350,8.1,8.1,77,0.00,,CLR,0.00,VWS V14.01,2013-04-05 07:34:00,
2013-04-05 02:39:00,45.3,38.5,30.09,North,8,5.4,8.7,77,0.00,,CLR,0.00,VWS V14.01,2013-04-05 07:39:00,
2013-04-05 02:45:00,45.1,38.4,30.09,North,0,8.1,10.5,77,0.00,,CLR,0.00,VWS V14.01,2013-04-05 07:45:00,
2013-04-05 02:50:00,45.0,38.2,30.09,NW,326,3.1,8.7,77,0.00,,CLR,0.00,VWS V14.01,2013-04-05 07:50:00,
2013-04-05 02:55:00,44.8,38.0,30.09,North,353,2.7,5.8,77,0.00,,CLR,0.00,VWS V14.01,2013-04-05 07:55:00,
2013-04-05 03:00:00,44.6,37.8,30.09,North,6,2.2,6.3,77,0.00,,CLR,0.00,VWS V14.01,2013-04-05 08:00:00,
2013-04-05 03:05:00,44.2,38.6,30.09,North,0,3.1,5.4,80,0.00,,CLR,0.00,VWS V14.01,2013-04-05 08:05:00,
2013-04-05 03:10:00,44.1,38.5,30.09,North,353,3.1,5.4,80,0.00,,CLR,0.00,VWS V14.01,2013-04-05 08:10:00,
2013-04-05 03:15:00,43.9,38.3,30.09,North,2,2.7,4.9,80,0.00,,CLR,0.00,VWS V14.01,2013-04-05 08:15:00,
2013-04-05 03:20:00,43.7,38.1,30.09,North,3,4.9,6.3,80,0.00,,CLR,0.00,VWS V14.01,2013-04-05 08:20:00,
2013-04-05 03:25:00,43.3,37.8,30.09,NW,320,4.0,4.0,80,0.00,,CLR,0.00,VWS V14.01,2013-04-05 08:25:00,
2013-04-05 03:30:00,43.3,37.8,30.09,North,11,2.2,2.7,80,0.00,,CLR,0.00,VWS V14.01,2013-04-05 08:30:00,
2013-04-05 03:35:00,43.0,37.4,30.11,NNW,345,4.0,6.3,80,0.00,,CLR,0.00,VWS V14.01,2013-04-05 08:35:00,
2013-04-05 03:40:00,42.8,37.2,30.11,NNW,331,3.1,5.8,80,0.00,,CLR,0.00,VWS V14.01,2013-04-05 08:40:00,
2013-04-05 03:45:00,42.8,37.2,30.11,North,357,3.1,3.6,80,0.00,,CLR,0.00,VWS V14.01,2013-04-05 08:45:00,
2013-04-05 03:50:00,42.6,37.0,30.11,North,357,5.8,5.8,80,0.00,,CLR,0.00,VWS V14.01,2013-04-05 08:50:00,
2013-04-05 03:55:00,42.4,36.9,30.11,North,353,3.6,4.0,80,0.00,,CLR,0.00,VWS V14.01,2013-04-05 08:55:00,
2013-04-05 04:01:00,42.3,36.7,30.11,North,357,3.6,5.4,80,0.00,,CLR,0.00,VWS V14.01,2013-04-05 09:01:00,
2013-04-05 04:06:00,42.1,36.5,30.11,NNW,348,3.6,5.4,80,0.00,,CLR,0.00,VWS V14.01,2013-04-05 09:06:00,
2013-04-05 04:11:00,42.1,36.5,30.11,North,350,0.0,0.0,80,0.00,,CLR,0.00,VWS V14.01,2013-04-05 09:11:00,
2013-04-05 04:16:00,42.1,36.5,30.11,North,0,0.0,3.6,80,0.00,,CLR,0.00,VWS V14.01,2013-04-05 09:16:00,
2013-04-05 04:21:00,41.7,36.2,30.11,NE,34,2.7,5.4,80,0.00,,CLR,0.00,VWS V14.01,2013-04-05 09:21:00,
2013-04-05 04:26:00,41.7,36.2,30.11,North,4,2.2,4.0,80,0.00,,CLR,0.00,VWS V14.01,2013-04-05 09:26:00,
2013-04-05 04:31:00,41.5,36.0,30.11,NW,324,8.7,8.7,80,0.00,,CLR,0.00,VWS V14.01,2013-04-05 09:31:00,
2013-04-05 04:36:00,41.5,36.0,30.11,NNW,335,3.1,5.4,80,0.00,,CLR,0.00,VWS V14.01,2013-04-05 09:36:00,
2013-04-05 04:41:00,41.4,35.8,30.11,NNW,328,0.0,4.9,80,0.00,,CLR,0.00,VWS V14.01,2013-04-05 09:41:00,
2013-04-05 04:47:00,41.2,35.7,30.11,North,7,3.6,5.4,80,0.00,,CLR,0.00,VWS V14.01,2013-04-05 09:47:00,
2013-04-05 04:52:00,41.2,35.7,30.11,North,6,2.7,3.1,80,0.00,,CLR,0.00,VWS V14.01,2013-04-05 09:52:00,
2013-04-05 04:57:00,41.0,35.5,30.11,North,0,3.6,5.8,80,0.00,,CLR,0.00,VWS V14.01,2013-04-05 09:57:00,
2013-04-05 05:02:00,40.8,35.3,30.11,North,357,3.6,5.4,80,0.00,,CLR,0.00,VWS V14.01,2013-04-05 10:02:00,
2013-04-05 05:07:00,40.8,35.3,30.11,North,357,2.7,6.3,80,0.00,,CLR,0.00,VWS V14.01,2013-04-05 10:07:00,
2013-04-05 05:12:00,40.6,35.1,30.11,North,0,6.3,6.3,80,0.00,,CLR,0.00,VWS V14.01,2013-04-05 10:12:00,
2013-04-05 05:17:00,40.6,35.1,30.14,NNW,348,3.1,6.3,80,0.00,,CLR,0.00,VWS V14.01,2013-04-05 10:17:00,
2013-04-05 05:22:00,40.6,35.1,30.14,North,357,0.0,4.0,80,0.00,,CLR,0.00,VWS V14.01,2013-04-05 10:22:00,
2013-04-05 05:27:00,40.5,34.9,30.14,NNW,330,3.6,5.4,80,0.00,,CLR,0.00,VWS V14.01,2013-04-05 10:27:00,
2013-04-05 05:32:00,40.5,34.9,30.14,NNE,22,2.7,3.6,80,0.00,,CLR,0.00,VWS V14.01,2013-04-05 10:32:00,
2013-04-05 05:37:00,40.3,34.8,30.14,North,6,0.0,0.0,80,0.00,,CLR,0.00,VWS V14.01,2013-04-05 10:37:00,
2013-04-05 05:42:00,40.1,34.6,30.14,NW,319,0.0,4.0,80,0.00,,CLR,0.00,VWS V14.01,2013-04-05 10:42:00,
2013-04-05 05:47:00,39.9,34.4,30.14,North,8,2.7,4.9,80,0.00,,CLR,0.00,VWS V14.01,2013-04-05 10:47:00,
2013-04-05 05:53:00,39.7,34.2,30.14,NNW,344,3.1,4.9,80,0.00,,CLR,0.00,VWS V14.01,2013-04-05 10:53:00,
2013-04-05 05:58:00,39.7,34.2,30.14,NNE,12,0.0,5.4,80,0.00,,CLR,0.00,VWS V14.01,2013-04-05 10:58:00,
2013-04-05 06:03:00,39.6,34.1,30.14,North,6,3.6,6.3,80,0.00,,CLR,0.00,VWS V14.01,2013-04-05 11:03:00,
2013-04-05 06:08:00,39.6,34.1,30.14,North,0,4.0,6.7,80,0.00,,CLR,0.00,VWS V14.01,2013-04-05 11:08:00,
2013-04-05 06:13:00,39.6,34.1,30.14,NNE,18,3.6,8.7,80,0.00,,CLR,0.00,VWS V14.01,2013-04-05 11:13:00,
2013-04-05 06:19:00,39.6,34.1,30.17,NNW,343,5.8,6.3,80,0.00,,CLR,0.00,VWS V14.01,2013-04-05 11:19:00,
2013-04-05 06:24:00,39.4,33.9,30.17,NE,49,3.6,8.3,80,0.00,,CLR,0.00,VWS V14.01,2013-04-05 11:24:00,
2013-04-05 06:29:00,39.2,33.7,30.17,NNW,333,4.5,9.6,80,0.00,,CLR,0.00,VWS V14.01,2013-04-05 11:29:00,
2013-04-05 06:34:00,39.2,33.7,30.17,North,353,3.6,6.3,80,0.00,,CLR,0.00,VWS V14.01,2013-04-05 11:34:00,
2013-04-05 06:39:00,39.0,34.6,30.17,NNE,31,6.3,7.6,84,0.00,,CLR,0.00,VWS V14.01,2013-04-05 11:39:00,
2013-04-05 06:44:00,38.8,34.4,30.17,NNE,12,3.1,6.3,84,0.00,,CLR,0.00,VWS V14.01,2013-04-05 11:44:00,
2013-04-05 06:49:00,38.7,34.2,30.17,North,353,4.9,6.3,84,0.00,,CLR,0.00,VWS V14.01,2013-04-05 11:49:00,
2013-04-05 06:54:00,38.7,34.2,30.17,NNE,15,3.1,6.7,84,0.00,,CLR,0.00,VWS V14.01,2013-04-05 11:54:00,
2013-04-05 06:59:00,38.7,34.2,30.17,NNE,24,3.6,7.6,84,0.00,,CLR,0.00,VWS V14.01,2013-04-05 11:59:00,
2013-04-05 07:05:00,38.7,34.2,30.17,NE,39,2.7,8.1,84,0.00,,CLR,0.00,VWS V14.01,2013-04-05 12:05:00,
2013-04-05 07:10:00,38.5,34.1,30.17,NNE,12,3.1,6.3,84,0.00,,CLR,0.00,VWS V14.01,2013-04-05 12:10:00,
2013-04-05 07:15:00,38.5,34.1,30.17,NNE,28,6.3,7.6,84,0.00,,CLR,0.00,VWS V14.01,2013-04-05 12:15:00,
2013-04-05 07:20:00,38.5,34.1,30.17,East,96,4.0,7.6,84,0.00,,CLR,0.00,VWS V14.01,2013-04-05 12:20:00,
2013-04-05 07:25:00,38.5,34.1,30.17,NE,54,5.4,8.1,84,0.00,,CLR,0.00,VWS V14.01,2013-04-05 12:25:00,
2013-04-05 07:30:00,38.5,34.1,30.17,North,353,4.9,6.7,84,0.00,,CLR,0.00,VWS V14.01,2013-04-05 12:30:00,
2013-04-05 07:35:00,38.7,34.2,30.17,NNW,344,4.9,6.3,84,0.00,,CLR,0.00,VWS V14.01,2013-04-05 12:35:00,
2013-04-05 07:40:00,38.7,34.2,30.17,NNE,27,4.0,4.0,84,0.00,,CLR,0.00,VWS V14.01,2013-04-05 12:40:00,
2013-04-05 07:45:00,38.7,34.2,30.17,North,9,3.1,3.1,84,0.00,,CLR,0.00,VWS V14.01,2013-04-05 12:45:00,
2013-04-05 07:50:00,38.7,34.2,30.20,NE,48,3.6,4.9,84,0.00,,CLR,0.00,VWS V14.01,2013-04-05 12:50:00,
2013-04-05 07:55:00,38.8,34.4,30.20,NNE,32,5.4,5.8,84,0.00,,CLR,0.00,VWS V14.01,2013-04-05 12:55:00,
2013-04-05 08:00:00,39.2,33.7,30.20,North,353,5.4,5.8,80,0.00,,CLR,0.00,VWS V14.01,2013-04-05 13:00:00,
2013-04-05 08:05:00,39.4,33.9,30.20,North,0,5.4,5.4,80,0.00,,CLR,0.00,VWS V14.01,2013-04-05 13:05:00,
2013-04-05 08:10:00,39.6,34.1,30.20,North,2,3.1,3.1,80,0.00,,CLR,0.00,VWS V14.01,2013-04-05 13:10:00,
2013-04-05 08:15:00,39.7,34.2,30.20,NE,47,4.0,5.4,80,0.00,,CLR,0.00,VWS V14.01,2013-04-05 13:15:00,
2013-04-05 08:20:00,40.1,34.6,30.20,NE,52,4.0,4.0,80,0.00,,CLR,0.00,VWS V14.01,2013-04-05 13:20:00,
2013-04-05 08:25:00,40.6,35.1,30.20,NE,43,7.6,10.5,80,0.00,,CLR,0.00,VWS V14.01,2013-04-05 13:25:00,
2013-04-05 08:30:00,41.2,35.7,30.20,ENE,65,9.2,9.2,80,0.00,,CLR,0.00,VWS V14.01,2013-04-05 13:30:00,
2013-04-05 08:36:00,41.5,36.0,30.20,NE,48,3.1,5.4,80,0.00,,CLR,0.00,VWS V14.01,2013-04-05 13:36:00,
2013-04-05 08:41:00,42.1,36.5,30.20,NE,52,3.1,4.0,80,0.00,,CLR,0.00,VWS V14.01,2013-04-05 13:41:00,
2013-04-05 08:46:00,42.4,36.9,30.20,North,353,3.6,8.3,80,0.00,,CLR,0.00,VWS V14.01,2013-04-05 13:46:00,
2013-04-05 08:51:00,42.8,37.2,30.20,ESE,102,2.7,10.5,80,0.00,,CLR,0.00,VWS V14.01,2013-04-05 13:51:00,
2013-04-05 08:56:00,43.3,37.8,30.20,NNE,28,3.6,6.7,80,0.00,,CLR,0.00,VWS V14.01,2013-04-05 13:56:00,
2013-04-05 09:01:00,43.7,38.1,30.20,NE,53,5.4,6.3,80,0.00,,CLR,0.00,VWS V14.01,2013-04-05 14:01:00,
2013-04-05 09:07:00,44.2,38.6,30.20,NW,324,3.1,5.8,80,0.00,,CLR,0.00,VWS V14.01,2013-04-05 14:07:00,
2013-04-05 09:12:00,44.6,37.8,30.20,ENE,72,5.4,6.3,77,0.00,,CLR,0.00,VWS V14.01,2013-04-05 14:12:00,
2013-04-05 09:17:00,45.1,38.4,30.20,ESE,112,3.6,4.9,77,0.00,,CLR,0.00,VWS V14.01,2013-04-05 14:17:00,
2013-04-05 09:22:00,45.7,38.9,30.20,NNW,329,10.1,10.1,77,0.00,,CLR,0.00,VWS V14.01,2013-04-05 14:22:00,
2013-04-05 09:27:00,45.9,39.1,30.20,NNE,14,4.0,7.6,77,0.00,,CLR,0.00,VWS V14.01,2013-04-05 14:27:00,
2013-04-05 09:33:00,45.7,38.9,30.20,NE,55,0.0,8.1,77,0.00,,CLR,0.00,VWS V14.01,2013-04-05 14:33:00,
2013-04-05 09:38:00,46.2,39.4,30.20,North,8,3.1,10.5,77,0.00,,CLR,0.00,VWS V14.01,2013-04-05 14:38:00,
2013-04-05 09:43:00,46.8,39.9,30.20,North,5,2.7,8.3,77,0.00,,CLR,0.00,VWS V14.01,2013-04-05 14:43:00,
2013-04-05 09:48:00,47.3,40.5,30.23,NE,52,5.4,8.3,77,0.00,,CLR,0.00,VWS V14.01,2013-04-05 14:48:00,
2013-04-05 09:53:00,47.7,40.8,30.23,NNE,13,4.9,6.3,77,0.00,,CLR,0.00,VWS V14.01,2013-04-05 14:53:00,
2013-04-05 09:58:00,47.7,40.8,30.23,NNE,14,2.7,8.7,77,0.00,,CLR,0.00,VWS V14.01,2013-04-05 14:58:00,
2013-04-05 10:04:00,47.8,41.0,30.23,NNW,338,2.7,6.3,77,0.00,,CLR,0.00,VWS V14.01,2013-04-05 15:04:00,
2013-04-05 10:09:00,48.0,41.2,30.23,ENE,57,3.1,6.3,77,0.00,,CLR,0.00,VWS V14.01,2013-04-05 15:09:00,
2013-04-05 10:14:00,48.6,40.5,30.23,North,10,3.1,7.6,74,0.00,,CLR,0.00,VWS V14.01,2013-04-05 15:14:00,
2013-04-05 10:19:00,49.1,41.0,30.23,North,357,7.6,8.3,74,0.00,,CLR,0.00,VWS V14.01,2013-04-05 15:19:00,
2013-04-05 10:24:00,49.6,41.5,30.23,ENE,58,4.9,5.4,74,0.00,,CLR,0.00,VWS V14.01,2013-04-05 15:24:00,
2013-04-05 10:29:00,50.0,41.9,30.23,North,357,5.8,7.6,74,0.00,,CLR,0.00,VWS V14.01,2013-04-05 15:29:00,
2013-04-05 10:34:00,50.2,42.0,30.23,North,353,3.6,6.3,74,0.00,,CLR,0.00,VWS V14.01,2013-04-05 15:34:00,
2013-04-05 10:39:00,50.5,42.4,30.23,ENE,69,4.9,7.6,74,0.00,,CLR,0.00,VWS V14.01,2013-04-05 15:39:00,
2013-04-05 10:44:00,51.3,43.1,30.23,NNE,25,4.0,10.1,74,0.00,,CLR,0.00,VWS V14.01,2013-04-05 15:44:00,
2013-04-05 10:50:00,51.6,43.4,30.23,North,9,4.9,6.3,74,0.00,,CLR,0.00,VWS V14.01,2013-04-05 15:50:00,
2013-04-05 10:55:00,51.8,43.6,30.23,NNE,23,3.1,8.7,74,0.00,,CLR,0.00,VWS V14.01,2013-04-05 15:55:00,
2013-04-05 11:00:00,52.5,44.3,30.23,NE,48,6.3,6.3,74,0.00,,CLR,0.00,VWS V14.01,2013-04-05 16:00:00,
2013-04-05 11:05:00,52.9,44.7,30.23,NE,35,4.0,4.0,74,0.00,,CLR,0.00,VWS V14.01,2013-04-05 16:05:00,
2013-04-05 11:10:00,53.1,44.8,30.23,SE,124,4.0,5.8,74,0.00,,CLR,0.00,VWS V14.01,2013-04-05 16:10:00,
2013-04-05 11:15:00,53.6,44.1,30.23,ESE,102,7.6,7.6,70,0.00,,CLR,0.00,VWS V14.01,2013-04-05 16:15:00,
2013-04-05 11:20:00,53.8,44.2,30.23,North,1,8.3,8.3,70,0.00,,CLR,0.00,VWS V14.01,2013-04-05 16:20:00,
2013-04-05 11:25:00,53.8,44.2,30.23,NNE,17,5.4,5.4,70,0.00,,CLR,0.00,VWS V14.01,2013-04-05 16:25:00,
2013-04-05 11:30:00,53.6,44.1,30.23,NE,52,2.2,5.4,70,0.00,,CLR,0.00,VWS V14.01,2013-04-05 16:30:00,
2013-04-05 11:37:00,54.0,44.4,30.23,ENE,60,5.4,5.8,70,0.00,,CLR,0.00,VWS V14.01,2013-04-05 16:37:00,
2013-04-05 11:42:00,54.5,44.9,30.23,North,0,5.4,6.7,70,0.00,,CLR,0.00,VWS V14.01,2013-04-05 16:42:00,
2013-04-05 11:47:00,54.9,45.3,30.23,ENE,71,5.8,6.3,70,0.00,,CLR,0.00,VWS V14.01,2013-04-05 16:47:00,
2013-04-05 11:52:00,54.7,45.1,30.23,NE,34,0.0,6.3,70,0.00,,CLR,0.00,VWS V14.01,2013-04-05 16:52:00,
2013-04-05 11:57:00,54.7,45.1,30.23,NNE,26,0.0,8.1,70,0.00,,CLR,0.00,VWS V14.01,2013-04-05 16:57:00,
2013-04-05 12:02:00,55.8,46.1,30.23,NNW,333,3.1,3.6,70,0.00,,CLR,0.00,VWS V14.01,2013-04-05 17:02:00,
2013-04-05 12:07:00,55.9,46.3,30.23,ENE,71,5.8,8.7,70,0.00,,CLR,0.00,VWS V14.01,2013-04-05 17:07:00,
2013-04-05 12:12:00,56.3,46.7,30.23,NNW,348,5.4,7.6,70,0.00,,CLR,0.00,VWS V14.01,2013-04-05 17:12:00,
2013-04-05 12:17:00,56.3,46.7,30.23,NW,326,4.0,6.3,70,0.00,,CLR,0.00,VWS V14.01,2013-04-05 17:17:00,
2013-04-05 12:23:00,56.7,47.0,30.23,NNW,332,0.0,5.4,70,0.00,,CLR,0.00,VWS V14.01,2013-04-05 17:23:00,
2013-04-05 12:28:00,57.0,47.3,30.23,SE,133,5.4,8.1,70,0.00,,CLR,0.00,VWS V14.01,2013-04-05 17:28:00,
2013-04-05 12:33:00,57.6,46.5,30.20,North,0,7.6,10.5,66,0.00,,CLR,0.00,VWS V14.01,2013-04-05 17:33:00,
2013-04-05 12:38:00,57.9,46.8,30.20,NNE,29,4.0,7.6,66,0.00,,CLR,0.00,VWS V14.01,2013-04-05 17:38:00,
2013-04-05 12:43:00,58.1,47.0,30.20,NNW,346,5.8,6.3,66,0.00,,CLR,0.00,VWS V14.01,2013-04-05 17:43:00,
2013-04-05 12:48:00,58.1,47.0,30.20,NNW,335,4.0,8.3,66,0.00,,CLR,0.00,VWS V14.01,2013-04-05 17:48:00,
2013-04-05 12:53:00,57.7,46.7,30.20,North,0,3.1,7.6,66,0.00,,CLR,0.00,VWS V14.01,2013-04-05 17:53:00,
2013-04-05 12:58:00,57.4,46.3,30.20,NE,42,5.4,8.7,66,0.00,,CLR,0.00,VWS V14.01,2013-04-05 17:58:00,
2013-04-05 13:03:00,57.6,46.5,30.20,NE,48,7.2,8.1,66,0.00,,CLR,0.00,VWS V14.01,2013-04-05 18:03:00,
2013-04-05 13:08:00,58.1,47.0,30.20,NNE,20,8.1,8.1,66,0.00,,CLR,0.00,VWS V14.01,2013-04-05 18:08:00,
2013-04-05 13:13:00,58.3,47.2,30.20,ENE,62,2.2,5.8,66,0.00,,CLR,0.00,VWS V14.01,2013-04-05 18:13:00,
2013-04-05 13:19:00,58.3,47.2,30.17,NNW,348,8.7,10.1,66,0.00,,CLR,0.00,VWS V14.01,2013-04-05 18:19:00,
2013-04-05 13:24:00,58.6,47.5,30.17,NNE,15,9.6,9.6,66,0.00,,CLR,0.00,VWS V14.01,2013-04-05 18:24:00,
2013-04-05 13:29:00,58.5,47.4,30.17,NNW,339,4.0,9.2,66,0.00,,CLR,0.00,VWS V14.01,2013-04-05 18:29:00,
2013-04-05 13:34:00,59.0,47.9,30.17,North,353,4.9,8.1,66,0.00,,CLR,0.00,VWS V14.01,2013-04-05 18:34:00,
2013-04-05 13:40:00,59.2,48.0,30.17,ENE,73,3.6,6.7,66,0.00,,CLR,0.00,VWS V14.01,2013-04-05 18:40:00,
2013-04-05 13:45:00,59.4,48.2,30.17,NE,46,5.4,11.0,66,0.00,,CLR,0.00,VWS V14.01,2013-04-05 18:45:00,
2013-04-05 13:50:00,59.5,48.4,30.17,NW,319,7.2,7.2,66,0.00,,CLR,0.00,VWS V14.01,2013-04-05 18:50:00,
2013-04-05 13:55:00,59.9,48.7,30.17,NNW,343,4.0,4.0,66,0.00,,CLR,0.00,VWS V14.01,2013-04-05 18:55:00,
2013-04-05 14:00:00,60.4,49.2,30.17,NE,40,4.9,5.8,66,0.00,,CLR,0.00,VWS V14.01,2013-04-05 19:00:00,
2013-04-05 14:05:00,60.1,48.9,30.17,NE,34,2.2,5.4,66,0.00,,CLR,0.00,VWS V14.01,2013-04-05 19:05:00,
2013-04-05 14:10:00,60.1,48.9,30.17,North,353,4.9,5.8,66,0.00,,CLR,0.00,VWS V14.01,2013-04-05 19:10:00,
2013-04-05 14:15:00,59.7,48.6,30.17,North,357,0.0,0.0,66,0.00,,CLR,0.00,VWS V14.01,2013-04-05 19:15:00,
2013-04-05 14:20:00,59.5,48.4,30.17,North,9,3.6,4.9,66,0.00,,CLR,0.00,VWS V14.01,2013-04-05 19:20:00,
2013-04-05 14:25:00,60.4,49.2,30.17,NNW,343,6.3,6.3,66,0.00,,CLR,0.00,VWS V14.01,2013-04-05 19:25:00,
2013-04-05 14:30:00,61.0,49.8,30.17,NNE,31,3.1,5.8,66,0.00,,CLR,0.00,VWS V14.01,2013-04-05 19:30:00,
2013-04-05 14:35:00,61.3,50.1,30.17,NNW,334,3.1,3.1,66,0.00,,CLR,0.00,VWS V14.01,2013-04-05 19:35:00,
2013-04-05 14:41:00,61.3,50.1,30.17,NNE,27,3.6,4.0,66,0.00,,CLR,0.00,VWS V14.01,2013-04-05 19:41:00,
2013-04-05 14:46:00,61.3,50.1,30.17,North,357,5.4,5.4,66,0.00,,CLR,0.00,VWS V14.01,2013-04-05 19:46:00,
2013-04-05 14:51:00,61.3,50.1,30.17,NW,315,4.0,4.0,66,0.00,,CLR,0.00,VWS V14.01,2013-04-05 19:51:00,
2013-04-05 14:56:00,60.6,49.4,30.17,West,271,2.2,5.4,66,0.00,,CLR,0.00,VWS V14.01,2013-04-05 19:56:00,
2013-04-05 15:01:00,60.6,49.4,30.17,NNW,343,3.1,3.1,66,0.00,,CLR,0.00,VWS V14.01,2013-04-05 20:01:00,
2013-04-05 15:07:00,61.0,49.8,30.17,SSE,151,0.0,0.0,66,0.00,,CLR,0.00,VWS V14.01,2013-04-05 20:07:00,
2013-04-05 15:12:00,61.5,50.3,30.17,NNE,13,0.0,4.0,66,0.00,,CLR,0.00,VWS V14.01,2013-04-05 20:12:00,
2013-04-05 15:17:00,62.1,50.8,30.17,NE,38,2.2,6.3,66,0.00,,CLR,0.00,VWS V14.01,2013-04-05 20:17:00,
2013-04-05 15:22:00,62.2,51.0,30.17,ENE,63,2.7,3.1,66,0.00,,CLR,0.00,VWS V14.01,2013-04-05 20:22:00,
2013-04-05 15:27:00,62.6,49.8,30.17,NNW,348,3.6,7.6,63,0.00,,CLR,0.00,VWS V14.01,2013-04-05 20:27:00,
2013-04-05 15:32:00,63.0,50.2,30.17,NNE,33,3.1,3.6,63,0.00,,CLR,0.00,VWS V14.01,2013-04-05 20:32:00,
2013-04-05 15:37:00,63.5,50.7,30.17,NNW,341,5.4,5.4,63,0.00,,CLR,0.00,VWS V14.01,2013-04-05 20:37:00,
2013-04-05 15:42:00,62.6,49.8,30.17,North,353,0.0,2.7,63,0.00,,CLR,0.00,VWS V14.01,2013-04-05 20:42:00,
2013-04-05 15:47:00,62.2,51.0,30.14,NNW,333,5.8,8.1,66,0.00,,CLR,0.00,VWS V14.01,2013-04-05 20:47:00,
2013-04-05 15:52:00,63.1,50.3,30.14,NNW,340,0.0,6.7,63,0.00,,CLR,0.00,VWS V14.01,2013-04-05 20:52:00,
2013-04-05 15:57:00,63.0,50.2,30.14,ENE,75,0.0,3.6,63,0.00,,CLR,0.00,VWS V14.01,2013-04-05 20:57:00,
2013-04-05 16:02:00,63.1,50.3,30.14,NE,55,4.0,4.0,63,0.00,,CLR,0.00,VWS V14.01,2013-04-05 21:02:00,
2013-04-05 16:07:00,63.0,50.2,30.14,NE,48,4.0,5.8,63,0.00,,CLR,0.00,VWS V14.01,2013-04-05 21:07:00,
2013-04-05 16:12:00,63.1,50.3,30.14,NNW,345,3.6,4.0,63,0.00,,CLR,0.00,VWS V14.01,2013-04-05 21:12:00,
2013-04-05 16:18:00,63.0,50.2,30.14,ENE,75,2.7,5.4,63,0.00,,CLR,0.00,VWS V14.01,2013-04-05 21:18:00,
2013-04-05 16:23:00,62.4,51.1,30.14,ESE,108,3.6,5.4,66,0.00,,CLR,0.00,VWS V14.01,2013-04-05 21:23:00,
2013-04-05 16:28:00,61.7,50.4,30.14,South,177,0.0,4.0,66,0.00,,CLR,0.00,VWS V14.01,2013-04-05 21:28:00,
2013-04-05 16:33:00,61.7,50.4,30.14,East,81,2.7,4.0,66,0.00,,CLR,0.00,VWS V14.01,2013-04-05 21:33:00,
2013-04-05 16:38:00,61.7,50.4,30.14,East,95,0.0,2.7,66,0.00,,CLR,0.00,VWS V14.01,2013-04-05 21:38:00,
2013-04-05 16:43:00,62.2,51.0,30.14,ENE,68,0.0,4.9,66,0.00,,CLR,0.00,VWS V14.01,2013-04-05 21:43:00,
2013-04-05 16:48:00,62.1,50.8,30.14,NNW,334,5.8,5.8,66,0.00,,CLR,0.00,VWS V14.01,2013-04-05 21:48:00,
2013-04-05 16:53:00,62.2,51.0,30.14,North,353,3.6,5.4,66,0.00,,CLR,0.00,VWS V14.01,2013-04-05 21:53:00,
2013-04-05 16:58:00,62.6,49.8,30.14,NNW,335,3.1,7.6,63,0.00,,CLR,0.00,VWS V14.01,2013-04-05 21:58:00,
2013-04-05 17:03:00,62.4,51.1,30.14,NNW,346,3.6,6.3,66,0.00,,CLR,0.00,VWS V14.01,2013-04-05 22:03:00,
2013-04-05 17:08:00,62.4,51.1,30.14,NNW,344,3.1,5.8,66,0.00,,CLR,0.00,VWS V14.01,2013-04-05 22:08:00,
2013-04-05 17:13:00,62.2,51.0,30.14,NE,44,4.0,5.4,66,0.00,,CLR,0.00,VWS V14.01,2013-04-05 22:13:00,
2013-04-05 17:18:00,61.9,50.6,30.14,ENE,73,0.0,4.0,66,0.00,,CLR,0.00,VWS V14.01,2013-04-05 22:18:00,
2013-04-05 17:23:00,61.7,50.4,30.14,North,0,3.6,5.8,66,0.00,,CLR,0.00,VWS V14.01,2013-04-05 22:23:00,
2013-04-05 17:29:00,61.2,49.9,30.14,North,349,0.0,5.4,66,0.00,,CLR,0.00,VWS V14.01,2013-04-05 22:29:00,
2013-04-05 17:34:00,60.8,49.6,30.14,NNW,348,3.6,3.6,66,0.00,,CLR,0.00,VWS V14.01,2013-04-05 22:34:00,
2013-04-05 17:39:00,60.3,49.1,30.14,NNW,334,0.0,6.3,66,0.00,,CLR,0.00,VWS V14.01,2013-04-05 22:39:00,
2013-04-05 17:44:00,59.7,48.6,30.14,North,4,0.0,0.0,66,0.00,,CLR,0.00,VWS V14.01,2013-04-05 22:44:00,
2013-04-05 17:49:00,59.4,48.2,30.14,North,357,2.2,3.6,66,0.00,,CLR,0.00,VWS V14.01,2013-04-05 22:49:00,
2013-04-05 17:54:00,59.2,48.0,30.14,NNE,23,0.0,4.9,66,0.00,,CLR,0.00,VWS V14.01,2013-04-05 22:54:00,
2013-04-05 17:59:00,59.0,47.9,30.14,North,353,4.0,5.4,66,0.00,,CLR,0.00,VWS V14.01,2013-04-05 22:59:00,
2013-04-05 18:04:00,58.6,47.5,30.14,NNE,21,0.0,4.9,66,0.00,,CLR,0.00,VWS V14.01,2013-04-05 23:04:00,
2013-04-05 18:09:00,58.5,47.4,30.14,NNW,327,3.1,4.0,66,0.00,,CLR,0.00,VWS V14.01,2013-04-05 23:09:00,
2013-04-05 18:14:00,58.1,47.0,30.14,North,6,2.7,4.0,66,0.00,,CLR,0.00,VWS V14.01,2013-04-05 23:14:00,
2013-04-05 18:20:00,57.9,46.8,30.14,NNE,32,0.0,4.0,66,0.00,,CLR,0.00,VWS V14.01,2013-04-05 23:20:00,
2013-04-05 18:25:00,57.6,46.5,30.14,NNW,342,4.5,4.9,66,0.00,,CLR,0.00,VWS V14.01,2013-04-05 23:25:00,
2013-04-05 18:30:00,57.6,46.5,30.14,NNE,22,2.7,5.4,66,0.00,,CLR,0.00,VWS V14.01,2013-04-05 23:30:00,
2013-04-05 18:35:00,57.2,46.2,30.14,NE,35,0.0,4.0,66,0.00,,CLR,0.00,VWS V14.01,2013-04-05 23:35:00,
2013-04-05 18:40:00,57.0,47.3,30.14,NNE,22,0.0,3.6,70,0.00,,CLR,0.00,VWS V14.01,2013-04-05 23:40:00,
2013-04-05 18:45:00,56.8,47.2,30.14,ENE,62,4.0,4.0,70,0.00,,CLR,0.00,VWS V14.01,2013-04-05 23:45:00,
2013-04-05 18:50:00,56.7,47.0,30.14,NE,46,2.7,2.7,70,0.00,,CLR,0.00,VWS V14.01,2013-04-05 23:50:00,
2013-04-05 18:55:00,56.5,46.8,30.14,NNE,32,0.0,0.0,70,0.00,,CLR,0.00,VWS V14.01,2013-04-05 23:55:00,
2013-04-05 19:00:00,56.3,46.7,30.14,NNE,27,0.0,2.7,70,0.00,,CLR,0.00,VWS V14.01,2013-04-06 00:00:00,
2013-04-05 19:05:00,55.9,46.3,30.11,North,5,0.0,0.0,70,0.00,,CLR,0.00,VWS V14.01,2013-04-06 00:05:00,
2013-04-05 19:10:00,55.8,46.1,30.11,NE,56,0.0,0.0,70,0.00,,CLR,0.00,VWS V14.01,2013-04-06 00:10:00,
2013-04-05 19:15:00,55.6,46.0,30.11,North,8,0.0,0.0,70,0.00,,CLR,0.00,VWS V14.01,2013-04-06 00:15:00,
2013-04-05 19:20:00,55.2,45.6,30.11,NNE,16,0.0,0.0,70,0.00,,CLR,0.00,VWS V14.01,2013-04-06 00:20:00,
2013-04-05 19:25:00,54.9,45.3,30.11,NNE,17,0.0,0.0,70,0.00,,CLR,0.00,VWS V14.01,2013-04-06 00:25:00,
2013-04-05 19:30:00,54.5,44.9,30.11,NNE,17,0.0,0.0,70,0.00,,CLR,0.00,VWS V14.01,2013-04-06 00:30:00,
2013-04-05 19:35:00,54.1,44.6,30.11,NNE,19,0.0,0.0,70,0.00,,CLR,0.00,VWS V14.01,2013-04-06 00:35:00,
2013-04-05 19:41:00,53.8,44.2,30.11,ESE,104,0.0,3.1,70,0.00,,CLR,0.00,VWS V14.01,2013-04-06 00:41:00,
2013-04-05 19:46:00,53.6,44.1,30.11,East,82,0.0,2.7,70,0.00,,CLR,0.00,VWS V14.01,2013-04-06 00:46:00,
2013-04-05 19:51:00,53.6,44.1,30.11,East,93,2.7,5.8,70,0.00,,CLR,0.00,VWS V14.01,2013-04-06 00:51:00,
2013-04-05 19:56:00,53.6,44.1,30.11,East,81,2.7,5.4,70,0.00,,CLR,0.00,VWS V14.01,2013-04-06 00:56:00,
2013-04-05 20:02:00,53.4,45.2,30.11,SE,135,3.1,4.0,74,0.00,,CLR,0.00,VWS V14.01,2013-04-06 01:02:00,
2013-04-05 20:07:00,53.2,45.0,30.11,SE,124,3.6,5.4,74,0.00,,CLR,0.00,VWS V14.01,2013-04-06 01:07:00,
2013-04-05 20:12:00,53.1,44.8,30.11,ENE,69,3.1,8.7,74,0.00,,CLR,0.00,VWS V14.01,2013-04-06 01:12:00,
2013-04-05 20:17:00,52.9,44.7,30.11,ESE,115,3.1,5.8,74,0.00,,CLR,0.00,VWS V14.01,2013-04-06 01:17:00,
2013-04-05 20:22:00,52.7,44.5,30.11,East,92,5.4,8.7,74,0.00,,CLR,0.00,VWS V14.01,2013-04-06 01:22:00,
2013-04-05 20:27:00,52.5,44.3,30.11,East,98,4.0,6.3,74,0.00,,CLR,0.00,VWS V14.01,2013-04-06 01:27:00,
2013-04-05 20:32:00,52.2,44.0,30.11,NNE,18,3.6,7.6,74,0.00,,CLR,0.00,VWS V14.01,2013-04-06 01:32:00,
2013-04-05 20:37:00,51.8,43.6,30.11,NE,49,4.0,7.6,74,0.00,,CLR,0.00,VWS V14.01,2013-04-06 01:37:00,
2013-04-05 20:42:00,51.6,43.4,30.11,ESE,105,3.6,10.1,74,0.00,,CLR,0.00,VWS V14.01,2013-04-06 01:42:00,
2013-04-05 20:47:00,51.3,43.1,30.11,ENE,60,3.6,11.0,74,0.00,,CLR,0.00,VWS V14.01,2013-04-06 01:47:00,
2013-04-05 20:52:00,50.9,42.7,30.11,SE,126,4.0,8.1,74,0.00,,CLR,0.00,VWS V14.01,2013-04-06 01:52:00,
2013-04-05 20:57:00,50.4,42.2,30.11,ESE,105,6.7,6.7,74,0.00,,CLR,0.00,VWS V14.01,2013-04-06 01:57:00,
2013-04-05 21:02:00,50.0,41.9,30.11,ESE,104,4.9,10.5,74,0.00,,CLR,0.00,VWS V14.01,2013-04-06 02:02:00,
2013-04-05 21:07:00,49.6,41.5,30.11,SE,130,6.3,10.5,74,0.00,,CLR,0.00,VWS V14.01,2013-04-06 02:07:00,
2013-04-05 21:12:00,49.1,41.0,30.11,NE,50,6.3,9.2,74,0.00,,CLR,0.00,VWS V14.01,2013-04-06 02:12:00,
2013-04-05 21:18:00,48.7,40.7,30.14,East,89,5.8,10.1,74,0.00,,CLR,0.00,VWS V14.01,2013-04-06 02:18:00,
2013-04-05 21:23:00,48.2,40.1,30.14,ENE,78,5.4,8.3,74,0.00,,CLR,0.00,VWS V14.01,2013-04-06 02:23:00,
2013-04-05 21:28:00,47.8,41.0,30.14,East,98,3.6,6.3,77,0.00,,CLR,0.00,VWS V14.01,2013-04-06 02:28:00,
2013-04-05 21:33:00,47.5,40.6,30.11,SE,129,5.4,6.3,77,0.00,,CLR,0.00,VWS V14.01,2013-04-06 02:33:00,
2013-04-05 21:38:00,47.3,40.5,30.11,East,100,4.0,9.6,77,0.00,,CLR,0.00,VWS V14.01,2013-04-06 02:38:00,
2013-04-05 21:43:00,47.3,40.5,30.11,East,84,4.0,7.6,77,0.00,,CLR,0.00,VWS V14.01,2013-04-06 02:43:00,
2013-04-05 21:48:00,47.1,40.3,30.11,SE,129,3.1,5.8,77,0.00,,CLR,0.00,VWS V14.01,2013-04-06 02:48:00,
2013-04-05 21:53:00,47.1,40.3,30.11,SSE,168,3.1,6.7,77,0.00,,CLR,0.00,VWS V14.01,2013-04-06 02:53:00,
2013-04-05 21:58:00,47.1,40.3,30.11,ESE,113,4.9,8.3,77,0.00,,CLR,0.00,VWS V14.01,2013-04-06 02:58:00,
2013-04-05 22:04:00,46.9,40.1,30.11,ENE,70,10.1,10.1,77,0.00,,CLR,0.00,VWS V14.01,2013-04-06 03:04:00,
2013-04-05 22:09:00,46.8,39.9,30.11,East,82,8.7,9.6,77,0.00,,CLR,0.00,VWS V14.01,2013-04-06 03:09:00,
2013-04-05 22:14:00,46.6,39.8,30.11,SE,127,8.1,8.7,77,0.00,,CLR,0.00,VWS V14.01,2013-04-06 03:14:00,
2013-04-05 22:19:00,46.4,39.6,30.11,ESE,123,4.0,8.3,77,0.00,,CLR,0.00,VWS V14.01,2013-04-06 03:19:00,
2013-04-05 22:24:00,46.4,39.6,30.11,East,96,3.1,4.5,77,0.00,,CLR,0.00,VWS V14.01,2013-04-06 03:24:00,
2013-04-05 22:29:00,46.2,39.4,30.11,SE,134,3.1,5.8,77,0.00,,CLR,0.00,VWS V14.01,2013-04-06 03:29:00,
2013-04-05 22:34:00,46.2,39.4,30.11,ESE,113,4.0,6.3,77,0.00,,CLR,0.00,VWS V14.01,2013-04-06 03:34:00,
2013-04-05 22:39:00,46.0,39.2,30.11,SE,129,3.6,8.7,77,0.00,,CLR,0.00,VWS V14.01,2013-04-06 03:39:00,
2013-04-05 22:44:00,46.0,39.2,30.11,East,91,4.0,6.3,77,0.00,,CLR,0.00,VWS V14.01,2013-04-06 03:44:00,
2013-04-05 22:50:00,45.9,39.1,30.11,East,91,6.3,10.1,77,0.00,,CLR,0.00,VWS V14.01,2013-04-06 03:50:00,
2013-04-05 22:55:00,45.7,38.9,30.11,ESE,107,3.6,8.1,77,0.00,,CLR,0.00,VWS V14.01,2013-04-06 03:55:00,
2013-04-05 23:00:00,45.5,38.7,30.11,ESE,103,7.6,10.1,77,0.00,,CLR,0.00,VWS V14.01,2013-04-06 04:00:00,
2013-04-05 23:02:00,45.5,38.7,30.11,SSW,203,4.0,9.6,77,0.00,,CLR,0.00,VWS V14.01,2013-04-06 04:02:00,
2013-04-05 23:03:00,45.5,38.7,30.11,ESE,111,3.1,9.6,77,0.00,,CLR,0.00,VWS V14.01,2013-04-06 04:03:00,
2013-04-05 23:08:00,45.3,38.5,30.11,East,84,6.3,6.3,77,0.00,,CLR,0.00,VWS V14.01,2013-04-06 04:08:00,
2013-04-05 23:13:00,45.1,38.4,30.11,ESE,118,3.1,7.6,77,0.00,,CLR,0.00,VWS V14.01,2013-04-06 04:13:00,
2013-04-05 23:18:00,45.1,38.4,30.11,ESE,112,5.4,8.3,77,0.00,,SCT120,0.00,VWS V14.01,2013-04-06 04:18:00,
2013-04-05 23:23:00,45.0,38.2,30.11,NE,47,6.3,6.3,77,0.00,,SCT120,0.00,VWS V14.01,2013-04-06 04:23:00,
2013-04-05 23:28:00,44.8,38.0,30.11,East,93,8.7,8.7,77,0.00,,SCT120,0.00,VWS V14.01,2013-04-06 04:28:00,
2013-04-05 23:33:00,44.6,37.8,30.11,East,83,5.4,8.3,77,0.00,,SCT120,0.00,VWS V14.01,2013-04-06 04:33:00,
2013-04-05 23:38:00,44.6,37.8,30.11,ENE,71,5.8,7.6,77,0.00,,SCT120,0.00,VWS V14.01,2013-04-06 04:38:00,
2013-04-05 23:43:00,44.6,37.8,30.11,ESE,104,2.2,5.8,77,0.00,,SCT120,0.00,VWS V14.01,2013-04-06 04:43:00,
2013-04-05 23:49:00,44.4,38.8,30.11,East,89,0.0,6.3,80,0.00,,SCT120,0.00,VWS V14.01,2013-04-06 04:49:00,
2013-04-05 23:54:00,44.4,38.8,30.11,East,87,2.7,7.2,80,0.00,,SCT120,0.00,VWS V14.01,2013-04-06 04:54:00,
2013-04-05 23:59:00,44.2,38.6,30.11,ENE,78,2.2,6.3,80,0.00,,SCT120,0.00,VWS V14.01,2013-04-06 04:59:00,